Weather History for Lake Charles, LA

Change the Weather History Date:

Tuesday, March 5, 2013

  Actual Average Record
Temperature  
Mean Temperature 60 °F -  
Max Temperature 71 °F 66 °F 77 °F (2009)
Min Temperature 49 °F 51 °F 33 °F (2002)
Degree Days  
Heating Degree Days 4    
Growing Degree Days 10 (Base 50)    
Moisture  
Dew Point 48 °F    
Average Humidity 66    
Maximum Humidity 91    
Minimum Humidity 21    
Precipitation  
Precipitation 0.00 in - - ()
Sea Level Pressure  
Sea Level Pressure 30.04 in    
Wind  
Wind Speed 9 mph (WSW)    
Max Wind Speed 17 mph    
Max Gust Speed 26 mph    
Visibility 8 miles    
Events      
Averages and records for this station are not official NWS values.
T = Trace of Precipitation, MM = Missing Value Source: NWS Daily Summary

Daily Weather History Graph

Daily Weather History Graph

Search for Another Location

Airport:

Trip Planner

Search our weather history database for the weather conditions in past years. The results will help you decide how hot, cold, wet, or windy it might be!

Date:

Astronomy

Mar. 05, 2013 Rise Set
Actual Time 6:33 AM CST 6:14 PM CST
Civil Twilight 6:09 AM CST 6:38 PM CST
Nautical Twilight 5:42 AM CST 7:06 PM CST
Astronomical Twilight 5:14 AM CST 7:34 PM CST
Moon 1:28 AM CST (3/5) 12:12 PM CST (3/5)
Length of Visible Light 12h 28m
Length of Day
11h 40m
Last Quarter, 40% of the Moon is Illuminated
Mar 5
Last Quarter
Mar 11
New
Mar 19
First Quarter
Mar 27
Full
Apr 2
Last Quarter

Hourly Weather History & Observations

Time (CST) Temp. Dew Point Humidity Pressure Visibility Wind Dir Wind Speed Gust Speed Precip Events Conditions
12:15 AM 61.9 °F 58.5 °F 89% 29.90 in 7.0 mi SSE 8.1 mph - N/A   Mostly Cloudy
12:35 AM 61.2 °F 58.3 °F 90% 29.90 in 7.0 mi SSE 8.1 mph - N/A   Mostly Cloudy
12:55 AM 61.0 °F 58.3 °F 91% 29.91 in 7.0 mi SSE 6.9 mph - N/A   Mostly Cloudy
1:15 AM 60.6 °F 58.1 °F 91% 29.90 in 7.0 mi SSE 6.9 mph - N/A   Mostly Cloudy
1:35 AM 61.2 °F 58.6 °F 91% 29.90 in 7.0 mi SSE 5.8 mph - N/A   Overcast
1:55 AM 61.7 °F 59.0 °F 91% 29.90 in 7.0 mi SSE 8.1 mph - N/A   Mostly Cloudy
2:15 AM 61.2 °F 58.5 °F 91% 29.89 in 7.0 mi South 8.1 mph - N/A   Mostly Cloudy
2:35 AM 61.3 °F 58.5 °F 90% 29.88 in 7.0 mi SSE 6.9 mph - N/A   Mostly Cloudy
2:55 AM 61.0 °F 58.3 °F 91% 29.88 in 7.0 mi South 8.1 mph - N/A   Overcast
3:15 AM 61.3 °F 58.6 °F 91% 29.88 in 7.0 mi South 5.8 mph - N/A   Overcast
3:35 AM 62.1 °F 59.0 °F 90% 29.88 in 7.0 mi South 6.9 mph - N/A   Overcast
3:55 AM 62.6 °F 59.2 °F 89% 29.88 in 7.0 mi South 10.4 mph - N/A   Overcast
4:15 AM 62.8 °F 59.4 °F 89% 29.88 in 7.0 mi South 6.9 mph - N/A   Mostly Cloudy
4:35 AM 63.3 °F 59.7 °F 88% 29.89 in 7.0 mi South 5.8 mph - N/A   Overcast
4:55 AM 64.4 °F 60.1 °F 86% 29.91 in 7.0 mi SSW 9.2 mph - N/A   Overcast
5:15 AM 65.3 °F 60.3 °F 84% 29.93 in 7.0 mi SW 9.2 mph - N/A   Overcast
5:35 AM 65.7 °F 60.3 °F 83% 29.98 in 7.0 mi WSW 9.2 mph - N/A   Overcast
5:55 AM 65.5 °F 60.6 °F 84% 29.99 in 7.0 mi WSW 9.2 mph - N/A   Overcast
6:00 AM 66.2 °F 60.8 °F 83% 29.98 in 7.0 mi WSW 8.1 mph - N/A   Mostly Cloudy
7:50 AM 66.2 °F 60.8 °F 83% 30.01 in 7.0 mi SW 8.1 mph - N/A   Mostly Cloudy
8:50 AM 68.0 °F 60.8 °F 78% 30.02 in 7.0 mi SW 6.9 mph - N/A   Overcast
9:45 AM 69.8 °F 60.8 °F 73% 30.06 in 7.0 mi West 12.7 mph 18.4 mph N/A   Overcast
10:50 AM 66.2 °F 46.4 °F 49% 30.10 in 10.0 mi NNW 17.3 mph 26.5 mph N/A   Mostly Cloudy
11:50 AM 69.8 °F 44.6 °F 40% 30.11 in 10.0 mi NNW 15.0 mph 23.0 mph N/A   Clear
1:50 PM 71.6 °F 37.4 °F 29% 30.10 in 10.0 mi NW 17.3 mph 25.3 mph N/A   Clear
3:50 PM 69.8 °F 28.4 °F 21% 30.12 in 10.0 mi NW 13.8 mph 20.7 mph N/A   Clear
4:50 PM 66.2 °F 30.2 °F 26% 30.14 in 10.0 mi North 12.7 mph - N/A   Clear
5:50 PM 64.4 °F 26.6 °F 24% 30.15 in 10.0 mi NNW 10.4 mph - N/A   Clear
6:45 PM 60.8 °F 28.4 °F 29% 30.18 in 10.0 mi NNW 8.1 mph - N/A   Clear
7:50 PM 59.0 °F 26.6 °F 29% 30.21 in 10.0 mi NNW 10.4 mph 16.1 mph N/A   Clear
8:50 PM 57.2 °F 28.4 °F 33% 30.23 in 10.0 mi NNW 13.8 mph - N/A   Clear
9:45 PM 55.4 °F 30.2 °F 38% 30.25 in 10.0 mi NNW 11.5 mph 17.3 mph N/A   Clear
10:15 PM 54.3 °F 30.7 °F 41% 30.27 in 10.0 mi NNW 12.7 mph 17.3 mph N/A   Clear
10:35 PM 53.8 °F 30.0 °F 40% 30.27 in 10.0 mi NNW 12.7 mph 18.4 mph N/A   Clear
10:55 PM 52.7 °F 30.2 °F 42% 30.28 in 10.0 mi NNW 10.4 mph - N/A   Clear
11:15 PM 51.6 °F 30.4 °F 44% 30.29 in 10.0 mi NNW 10.4 mph - N/A   Clear
11:35 PM 50.9 °F 30.6 °F 46% 30.29 in 10.0 mi NNW 9.2 mph - N/A   Clear
11:55 PM 49.6 °F 30.6 °F 48% 30.30 in 10.0 mi NNW 9.2 mph - N/A   Clear